When you browse on this site, cookies collect data to enhance your experience and personalize the content and advertising you see.
Visit our Privacy Policy to learn more. By continuing to use the site, you agree to this use of cookies and data.
EN

Hourly Weather Voyinka

Today, 15 August, Saturday

Time Temperature Precipitation Wind Pressure Humidity
00:00 +19°C° 0 mm 3 mps 760 mmHg 52%
01:00 +18°C° 0 mm 3 mps 761 mmHg 54%
02:00 +18°C° 0 mm 3 mps 761 mmHg 55%
03:00 +18°C° 0 mm 3 mps 761 mmHg 57%
04:00 +17°C° 0 mm 3 mps 761 mmHg 59%
05:00 +17°C° 0 mm 3 mps 761 mmHg 61%
06:00 +19°C° 0 mm 3 mps 761 mmHg 56%
07:00 +20°C° 0 mm 3 mps 761 mmHg 50%
08:00 +22°C° 0 mm 4 mps 761 mmHg 45%
09:00 +24°C° 0 mm 3 mps 761 mmHg 42%
10:00 +24°C° 0 mm 3 mps 761 mmHg 38%
11:00 +25°C° 0 mm 3 mps 761 mmHg 35%
12:00 +26°C° 0 mm 3 mps 761 mmHg 34%
13:00 +26°C° 0 mm 3 mps 761 mmHg 33%
14:00 +27°C° 0 mm 3 mps 761 mmHg 32%
15:00 +26°C° 0 mm 3 mps 761 mmHg 34%
16:00 +26°C° 0 mm 3 mps 760 mmHg 35%
17:00 +26°C° 0 mm 4 mps 760 mmHg 36%
18:00 +24°C° 0 mm 3 mps 760 mmHg 42%
19:00 +22°C° 0 mm 3 mps 760 mmHg 48%
20:00 +20°C° 0 mm 3 mps 760 mmHg 54%
21:00 +19°C° 0 mm 2 mps 760 mmHg 56%
22:00 +19°C° 0 mm 2 mps 760 mmHg 57%
23:00 +19°C° 0 mm 1 mps 761 mmHg 59%

Tomorrow, 16 August, Sunday

Time Temperature Precipitation Wind Pressure Humidity
00:00 +19°C° 0 mm 1 mps 760 mmHg 60%
01:00 +19°C° 0 mm 1 mps 760 mmHg 61%
02:00 +18°C° 0 mm 2 mps 760 mmHg 62%
03:00 +18°C° 0 mm 2 mps 760 mmHg 63%
04:00 +18°C° 0 mm 3 mps 760 mmHg 64%
05:00 +18°C° 0 mm 3 mps 760 mmHg 65%
06:00 +20°C° 0 mm 4 mps 760 mmHg 58%
07:00 +22°C° 0 mm 4 mps 760 mmHg 52%
08:00 +23°C° 0 mm 4 mps 761 mmHg 45%
09:00 +25°C° 0 mm 5 mps 761 mmHg 42%
10:00 +26°C° 0 mm 5 mps 761 mmHg 38%
11:00 +27°C° 0 mm 5 mps 761 mmHg 35%
12:00 +27°C° 0 mm 5 mps 761 mmHg 34%
13:00 +27°C° 0 mm 5 mps 761 mmHg 33%
14:00 +27°C° 0 mm 5 mps 761 mmHg 32%
15:00 +27°C° 0 mm 4 mps 761 mmHg 33%
16:00 +27°C° 0 mm 4 mps 760 mmHg 34%
17:00 +26°C° 0 mm 3 mps 760 mmHg 34%
18:00 +25°C° 0 mm 3 mps 760 mmHg 40%
19:00 +23°C° 0 mm 2 mps 761 mmHg 46%
20:00 +20°C° 0 mm 2 mps 761 mmHg 51%
21:00 +20°C° 0 mm 2 mps 761 mmHg 54%
22:00 +20°C° 0 mm 1 mps 761 mmHg 56%
23:00 +19°C° 0 mm 1 mps 761 mmHg 59%

Day after tomorrow, 17 August, Monday

Time Temperature Precipitation Wind Pressure Humidity
00:00 +19°C° 0 mm 1 mps 761 mmHg 59%
01:00 +19°C° 0 mm 1 mps 761 mmHg 60%
02:00 +19°C° 0 mm 1 mps 761 mmHg 60%
03:00 +19°C° 0 mm 1 mps 761 mmHg 61%
04:00 +19°C° 0 mm 1 mps 761 mmHg 62%
05:00 +19°C° 0 mm 1 mps 761 mmHg 63%
06:00 +20°C° 0 mm 2 mps 761 mmHg 55%
07:00 +23°C° 0 mm 2 mps 761 mmHg 48%
08:00 +25°C° 0 mm 2 mps 761 mmHg 40%
09:00 +27°C° 0 mm 2 mps 761 mmHg 37%
10:00 +28°C° 0 mm 3 mps 761 mmHg 34%
11:00 +29°C° 0 mm 3 mps 761 mmHg 31%
12:00 +30°C° 0 mm 3 mps 761 mmHg 30%
13:00 +30°C° 0 mm 3 mps 761 mmHg 30%
14:00 +30°C° 0 mm 3 mps 760 mmHg 29%
15:00 +30°C° 0 mm 3 mps 760 mmHg 30%
16:00 +30°C° 0 mm 3 mps 760 mmHg 32%
17:00 +30°C° 0 mm 3 mps 759 mmHg 33%
18:00 +28°C° 0 mm 3 mps 759 mmHg 40%
19:00 +26°C° 0 mm 3 mps 760 mmHg 46%
20:00 +24°C° 0 mm 2 mps 760 mmHg 53%
21:00 +23°C° 0 mm 2 mps 760 mmHg 55%
22:00 +22°C° 0 mm 3 mps 760 mmHg 56%
23:00 +22°C° 0 mm 3 mps 760 mmHg 58%

18 August, Tuesday

Time Temperature Precipitation Wind Pressure Humidity
00:00 +21°C° 0 mm 3 mps 759 mmHg 59%
01:00 +21°C° 0 mm 2 mps 759 mmHg 60%
02:00 +21°C° 0 mm 2 mps 759 mmHg 60%
03:00 +21°C° 0 mm 2 mps 759 mmHg 62%
04:00 +21°C° 0 mm 2 mps 759 mmHg 63%
05:00 +21°C° 0 mm 1 mps 759 mmHg 65%
06:00 +24°C° 0 mm 2 mps 759 mmHg 58%
07:00 +26°C° 0 mm 2 mps 759 mmHg 51%
08:00 +28°C° 0 mm 2 mps 759 mmHg 44%
09:00 +29°C° 0 mm 2 mps 758 mmHg 41%
10:00 +30°C° 0 mm 3 mps 758 mmHg 38%
11:00 +31°C° 0 mm 3 mps 758 mmHg 34%
12:00 +33°C° 0 mm 4 mps 758 mmHg 34%
13:00 +33°C° 0 mm 4 mps 758 mmHg 33%
14:00 +33°C° 0 mm 5 mps 757 mmHg 33%
15:00 +33°C° 0 mm 4 mps 757 mmHg 34%
16:00 +32°C° 0 mm 4 mps 757 mmHg 34%
17:00 +32°C° 0 mm 4 mps 757 mmHg 35%
18:00 +29°C° 0 mm 3 mps 757 mmHg 40%
19:00 +27°C° 0 mm 3 mps 757 mmHg 45%
20:00 +25°C° 0 mm 2 mps 757 mmHg 50%
21:00 +25°C° 0 mm 2 mps 757 mmHg 53%
22:00 +24°C° 0 mm 1 mps 757 mmHg 57%
23:00 +23°C° 0 mm 1 mps 757 mmHg 61%

19 August, Wednesday

Time Temperature Precipitation Wind Pressure Humidity
00:00 +23°C° 0 mm 1 mps 757 mmHg 62%
01:00 +23°C° 0 mm 1 mps 757 mmHg 62%
02:00 +22°C° 0 mm 1 mps 757 mmHg 62%
03:00 +22°C° 0 mm 1 mps 757 mmHg 62%
04:00 +22°C° 0 mm 1 mps 756 mmHg 63%
05:00 +22°C° 0 mm 1 mps 756 mmHg 63%
06:00 +24°C° 0 mm 1 mps 756 mmHg 56%
07:00 +26°C° 0 mm 2 mps 756 mmHg 49%
08:00 +28°C° 0 mm 2 mps 757 mmHg 43%
09:00 +30°C° 0 mm 2 mps 757 mmHg 39%
10:00 +31°C° 0 mm 3 mps 757 mmHg 36%
11:00 +33°C° 0 mm 3 mps 757 mmHg 32%
12:00 +34°C° 0 mm 3 mps 756 mmHg 31%
13:00 +34°C° 0 mm 4 mps 756 mmHg 30%
14:00 +35°C° 0 mm 4 mps 756 mmHg 29%
15:00 +34°C° 0 mm 5 mps 756 mmHg 31%
16:00 +33°C° 0 mm 5 mps 756 mmHg 34%
17:00 +32°C° 0 mm 6 mps 755 mmHg 36%
18:00 +30°C° 0 mm 5 mps 755 mmHg 42%
19:00 +28°C° 0 mm 4 mps 756 mmHg 48%
20:00 +26°C° 0 mm 3 mps 756 mmHg 54%
21:00 +25°C° 0 mm 3 mps 755 mmHg 54%
22:00 +25°C° 0 mm 3 mps 755 mmHg 54%
23:00 +24°C° 0 mm 2 mps 755 mmHg 54%

20 August, Thursday

Time Temperature Precipitation Wind Pressure Humidity
00:00 +24°C° 0 mm 2 mps 755 mmHg 56%
01:00 +23°C° 0 mm 2 mps 755 mmHg 58%
02:00 +23°C° 0 mm 2 mps 755 mmHg 61%
03:00 +23°C° 0 mm 2 mps 754 mmHg 61%
04:00 +23°C° 0 mm 2 mps 754 mmHg 62%
05:00 +21°C° 0 mm 2 mps 754 mmHg 63%
06:00 +25°C° 0 mm 3 mps 754 mmHg 56%
07:00 +27°C° 0 mm 3 mps 754 mmHg 49%
08:00 +29°C° 0 mm 4 mps 754 mmHg 42%
09:00 +30°C° 0 mm 4 mps 754 mmHg 39%
10:00 +33°C° 0 mm 4 mps 754 mmHg 37%
11:00 +34°C° 0 mm 4 mps 754 mmHg 34%
12:00 +35°C° 0 mm 4 mps 754 mmHg 31%
13:00 +35°C° 0 mm 5 mps 754 mmHg 29%
14:00 +36°C° 0 mm 5 mps 754 mmHg 27%
15:00 +35°C° 0 mm 5 mps 754 mmHg 28%
16:00 +34°C° 0 mm 5 mps 754 mmHg 28%
17:00 +33°C° 0 mm 5 mps 753 mmHg 29%
18:00 +30°C° 0 mm 4 mps 754 mmHg 35%
19:00 +28°C° 0 mm 3 mps 754 mmHg 42%
20:00 +26°C° 0 mm 2 mps 754 mmHg 48%
21:00 +26°C° 0 mm 2 mps 754 mmHg 47%
22:00 +25°C° 0 mm 2 mps 754 mmHg 47%
23:00 +25°C° 0 mm 1 mps 754 mmHg 46%
Show more